TIANHUI 5B

Satellite information

Favourite Embed

Satellite Type and Status

PAYLOADIN ORBIT

Key statistics

Satellite TIANHUI 5B at a glance.

Uptime

554

Days in orbit

Revolutions

≈ 14.9

Per day

Orbit

SSO

Sun Synchronous Orbit

Inclination

97.8

Latest

Satellite identification and parameters

Extended collection of information and parameters for TIANHUI 5B.

Object identification

Identified? True

Debris? False

Object name: TIANHUI 5B

International designator: 2023-168C

Object number (NORAD): 58201

Object ID (CCSDS): 58201

Country: PEOPLES REPUBLIC OF CHINA (PRC)

Current information (Y/N): Y

RCS size: LARGE

Orbital parameters

Period: 96.802 minutes

Inclination: 97.8203 deg

SMA: 6983.64 km

Apoapsis: 606.853 km

Periapsis: 604.156 km

RAAN: 133.803 deg

Eccentricy: 0.0001931

Argument of periapsis: 93.2348 deg

Mean anomaly: 266.909 deg

Mean motion: 14.87578884 rev/day

Mean motion (dot): 0.00000759 rev/day2

B* drag term: 0.000089485 1/REarth

Two-line elements (TLE)

Creation date: May 6, 2025, 3:54 a.m.

Reference frame: TEME

Reference center: EARTH

Epoch: May 5, 2025, 2:06 p.m. UTC

TLE line 0: 0 TIANHUI 5B

TLE line 1: 1 58201U 23168C 25125.58777448 .00000759 00000-0 89485-4 0 9990

TLE line 2: 2 58201 97.8203 133.8030 0001931 93.2348 266.9090 14.87578884 82000

Live tracking on map

Real-time ground track for satellite TIANHUI 5B.

In-orbit conjunctions

There are no conjunctions computed for TIANHUI 5B, at the moment. Check back to stay up to date, as we update our databases every day.

Go to all conjunctions

Associated space launch

A pair of satellites officially described as for cartographic surveying purposes, details TBD.

TIANHUI 5B was lifted into orbit during the mission ‘Long March 6A | Tianhui 5’, on board a Long March 6A space rocket.

The launch took place on Oct. 31, 2023, 10:50 p.m. from Launch Complex 9A.

For more information about the launch, click the button.

Launch to space Long March 6A | Tianhui 5
Long March 6A | Tianhui 5

Agency: N/A

Status: Launch Successful

Launch date: Oct. 31, 2023, 10:50 p.m. UTC

Rocket: Long March 6A

Launch pad: Launch Complex 9A

Location: Taiyuan Satellite Launch Center, People's Republic of China

...

Latest news about this satellite

There are no fresh news available about this satellite. Check back as we update our databases every day.


Newsletter sign-up

Weekly statistics, charts and insights to help you stay on top of the space industry.